Wind_Speed
24 27 31 34 38 42 47 52 59 69 78 87 91 92 94 92 77 68 54 43 32 22 9 4 20 30 40 45 56 68 83 97 107 110 110 107 107 102 101 95 88 80 78 74 69 71 67
27 29 31 33 37 41 45 50 56 65 75 84 90 91 92 98 83 74 57 48 34 27 20 11 13 22 33 44 53 66 82 92 106 108 101 101 102 102 106 98 91 86 79 75 72 71 67
27 31 32 34 34 38 42 47 53 62 70 80 90 90 91 95 94 81 67 57 41 33 29 19 14 22 30 40 51 63 78 86 105 108 106 104 103 100 96 93 89 85 81 78 75 71 66
28 30 33 33 34 36 41 44 49 59 67 75 85 91 90 91 97 87 73 61 52 38 31 26 15 12 27 38 48 56 66 75 93 112 105 102 95 97 90 88 85 84 81 80 76 72 67
30 30 33 33 34 34 38 41 45 55 62 72 78 89 90 89 91 96 79 67 55 48 37 30 23 12 9 20 38 49 60 69 83 99 106 103 98 92 88 88 84 83 78 75 72 70 66
31 28 29 34 34 33 35 40 41 49 57 65 74 83 88 88 89 93 88 71 59 49 41 27 25 20 9 10 22 37 50 61 72 80 103 104 103 99 93 90 88 84 77 73 69 67 64
32 31 30 31 34 31 32 37 37 45 54 61 68 75 84 88 88 90 92 75 66 51 42 34 24 21 18 11 14 29 39 51 61 71 84 103 102 103 96 92 89 87 79 74 71 68 66
34 34 33 30 32 28 29 33 33 39 46 54 62 69 76 82 87 88 91 93 70 59 44 39 30 20 19 15 11 17 25 37 46 54 68 98 109 104 101 96 90 84 80 73 72 69 64
32 33 32 29 27 28 27 29 31 35 41 47 55 62 70 77 81 86 87 90 81 64 55 47 39 28 17 17 21 19 19 25 38 47 61 76 105 104 100 96 90 85 80 75 69 65 65
26 26 25 22 22 25 25 26 27 31 36 41 48 56 63 69 75 81 85 87 88 75 65 56 46 39 27 18 20 23 24 23 27 37 53 65 88 108 102 98 92 86 80 77 74 68 65
31 33 24 18 20 22 23 23 25 28 31 37 43 50 55 61 68 75 81 83 83 83 76 66 58 48 34 27 17 18 21 24 21 28 44 56 71 96 105 101 93 88 82 77 73 71 65
31 34 34 22 18 21 22 20 23 28 28 31 38 43 49 53 60 67 73 78 79 79 75 79 69 60 49 35 30 18 16 20 26 32 34 51 59 73 100 97 91 87 80 78 74 72 69
29 32 34 31 19 17 21 19 20 25 29 28 32 37 42 46 52 59 64 70 73 75 75 74 76 69 60 49 39 32 24 15 14 20 25 37 53 67 81 92 87 84 79 76 73 72 69
24 27 32 34 30 16 19 21 18 21 26 30 28 34 37 39 45 49 53 61 67 70 74 72 72 69 66 61 55 44 36 29 20 11 17 27 42 57 71 80 85 82 81 77 71 70 70
25 26 28 31 32 28 17 18 20 19 21 26 28 29 33 37 39 42 45 51 57 62 67 71 70 67 66 62 60 57 51 41 32 25 15 15 33 48 58 68 77 80 74 70 74 72 69
26 25 27 27 28 31 26 18 19 19 20 22 23 27 27 30 35 37 38 42 46 51 56 62 67 70 67 63 61 59 54 49 44 34 23 16 11 30 46 53 60 65 68 68 66 64 64
25 24 24 24 26 27 28 26 19 19 20 20 20 23 25 26 29 31 33 35 37 41 46 49 54 56 57 63 63 59 54 51 48 44 37 29 19 11 15 26 34 42 49 55 59 62 64
26 22 22 22 22 25 26 26 26 19 19 20 21 21 22 24 25 27 28 31 30 32 35 39 42 46 48 49 52 56 58 57 54 49 44 37 33 26 18 11 7 10 17 21 26 30 31
26 26 23 24 23 24 25 22 24 26 21 19 21 22 22 23 23 26 26 25 27 26 26 28 31 34 36 39 39 40 43 44 46 46 46 45 44 39 33 27 23 22 19 15 15 14 15
34 29 26 25 26 28 26 23 23 24 25 21 18 20 20 23 24 25 28 24 20 23 24 23 24 26 27 29 30 30 30 31 31 32 32 33 31 29 30 28 28 26 24 22 20 18 13
36 33 31 30 32 27 24 26 25 25 25 23 21 18 19 19 21 24 25 22 19 17 20 19 20 19 21 23 22 24 24 21 24 23 22 21 23 22 19 17 16 13 15 13 13 16 16
39 38 36 35 34 34 27 25 29 29 25 27 27 24 21 20 19 20 19 20 21 21 17 17 17 18 18 17 17 18 19 21 17 12 15 12 12 15 12 12 12 12 14 11 14 16 19
41 42 40 38 36 33 31 29 30 31 29 27 27 28 27 28 26 21 16 16 22 25 22 19 18 19 21 20 18 17 16 14 16 15 10 10 13 12 8 7 8 10 13 16 15 17 23
43 43 41 38 37 35 37 37 36 35 34 32 31 27 27 27 28 26 22 17 18 20 22 24 24 24 24 24 23 23 23 21 19 17 17 18 17 18 15 14 17 18 17 20 25 26 29
51 49 48 46 43 41 40 40 40 41 39 39 38 35 33 33 32 32 31 29 25 23 22 21 21 23 25 28 30 29 31 30 30 26 26 25 24 23 24 28 27 28 31 30 32 34 37
58 57 56 53 52 50 47 47 45 44 46 45 44 45 43 42 39 37 36 35 34 34 34 32 30 31 29 28 28 30 32 31 34 37 38 35 33 34 35 35 34 39 41 40 39 41 46
70 68 66 62 59 59 57 55 56 55 54 55 53 50 51 52 51 51 49 47 44 42 41 41 42 41 39 37 36 38 41 41 44 45 47 44 42 44 45 45 43 46 46 46 49 50 52
73 74 74 74 72 68 65 64 63 63 63 61 60 61 60 59 58 59 57 56 57 56 56 54 51 50 50 49 49 48 47 46 43 46 48 50 51 52 52 53 51 54 54 55 55 58 59
83 78 77 80 78 76 69 69 67 70 71 70 64 60 62 63 67 67 66 66 64 63 64 70 71 70 66 63 60 58 59 58 57 56 60 60 62 61 64 64 63 62 59 60 64 64 65
Wind_Direction
297 302 307 315 323 335 338 343 348 353 1 3 3 6 11 13 11 10 15 11 8 16 32 156 186 192 199 200 196 198 200 198 204 206 208 210 214 215 216 220 224 225 226 228 228 233 235
300 303 308 315 324 334 340 346 352 356 3 2 6 10 12 16 15 16 20 21 20 38 54 90 158 183 191 193 192 195 198 199 202 206 207 209 213 215 217 218 222 225 225 227 228 231 231
303 308 312 317 323 334 341 348 355 359 3 2 7 12 14 18 20 17 21 25 25 39 57 70 133 165 181 189 192 195 199 197 202 204 206 207 209 210 215 217 218 220 222 224 230 233 235
306 311 316 317 323 333 341 350 357 2 5 3 5 13 16 19 23 20 23 26 27 33 50 56 69 158 181 187 194 196 199 199 199 204 206 209 210 212 214 213 216 219 221 225 228 232 234
305 308 311 314 322 333 340 351 358 5 8 3 5 13 17 20 24 27 23 27 25 31 43 57 56 39 155 193 199 193 195 197 201 204 205 207 208 212 214 214 216 215 218 222 228 233 234
302 306 310 314 319 330 341 349 359 6 11 6 5 11 17 21 25 28 28 27 29 27 35 50 70 66 62 186 187 191 191 194 198 205 207 207 206 209 213 214 214 216 216 220 224 228 232
297 301 306 308 315 325 339 346 359 8 11 11 8 8 16 20 24 28 30 31 30 29 31 38 48 81 84 72 199 193 194 195 198 198 203 206 206 208 210 215 215 217 214 217 221 227 229
295 294 296 302 308 321 334 344 355 5 11 13 12 9 14 20 25 28 31 32 33 33 36 38 50 60 92 93 117 178 194 196 198 200 203 204 206 210 212 214 217 217 215 217 224 228 229
304 301 297 291 298 313 328 341 349 2 8 13 13 14 13 20 27 28 32 34 35 36 38 40 45 49 63 108 125 131 161 190 198 197 201 203 208 209 213 215 217 218 217 217 221 225 230
341 323 311 293 289 306 324 342 348 1 8 13 15 16 15 20 27 31 31 35 37 38 39 43 43 46 66 85 115 131 140 152 169 191 199 201 205 210 212 214 217 217 217 218 219 223 230
10 4 339 302 285 300 317 336 349 356 8 11 16 16 17 23 28 33 33 35 39 40 39 43 46 49 56 64 74 111 138 147 158 174 188 197 201 208 211 214 216 217 217 219 222 225 230
1 4 1 338 292 295 308 329 343 352 358 10 13 17 17 24 27 32 34 36 37 42 43 43 45 47 51 58 60 74 115 148 156 170 184 197 201 203 209 212 216 219 219 219 222 226 231
353 354 357 357 327 299 302 319 335 347 353 3 10 14 16 20 30 32 33 38 39 39 45 48 46 47 48 51 57 63 76 122 150 162 176 188 195 200 206 211 216 220 223 224 225 229 235
340 349 350 357 356 317 304 310 324 341 347 355 5 10 13 16 27 30 32 36 41 41 43 47 51 50 50 51 53 59 67 73 81 132 175 184 193 196 202 208 214 218 222 227 230 233 237
321 330 337 346 355 354 323 303 313 326 340 346 353 3 8 11 18 27 27 37 38 42 43 47 52 56 54 53 53 54 57 60 72 85 92 179 192 200 205 209 214 218 224 228 232 236 242
310 316 324 334 346 350 354 326 306 316 323 333 344 349 358 4 7 16 23 27 37 40 42 46 53 55 58 61 60 58 58 59 61 64 75 99 168 201 207 211 216 222 230 234 238 242 247
315 316 318 331 332 341 350 354 331 307 313 320 330 340 350 357 1 4 11 23 22 39 40 44 49 52 54 56 64 67 67 65 65 67 69 73 86 133 195 215 225 233 236 239 242 247 253
301 312 320 328 333 333 337 348 352 339 316 322 322 331 339 347 354 2 0 7 18 20 34 38 43 45 48 54 58 63 67 70 72 72 74 76 77 81 90 106 143 204 228 235 239 247 254
293 294 306 311 325 332 334 333 341 345 336 316 318 327 331 338 344 350 353 350 2 9 15 29 34 39 43 47 50 60 62 66 67 70 75 80 85 84 90 97 109 110 113 124 127 127 109
281 287 292 297 308 319 324 327 331 337 339 341 330 321 325 330 332 335 338 339 338 351 359 6 18 24 30 41 46 52 55 62 66 67 69 74 74 73 79 82 93 87 91 83 87 78 64
280 284 283 292 296 299 310 314 317 322 325 328 336 339 327 331 330 331 331 327 330 322 333 348 356 6 10 15 26 29 43 48 45 47 52 48 58 56 51 52 64 75 58 67 43 31 14
279 279 282 279 287 289 295 303 307 314 314 318 318 322 328 332 328 334 333 322 318 316 299 310 326 332 341 348 354 7 7 18 28 38 41 54 57 40 36 17 359 1 5 347 352 344 349
276 276 277 279 279 286 286 290 291 297 301 306 309 314 310 315 317 323 328 323 314 311 307 291 294 302 308 315 322 328 335 331 343 349 360 350 352 355 348 340 318 318 314 315 318 315 319
271 273 275 278 278 276 278 283 284 286 286 288 294 301 305 308 311 307 305 303 309 318 311 300 291 290 290 293 296 301 306 310 316 312 314 323 322 322 295 300 305 306 305 298 293 296 302
271 271 274 275 276 276 276 277 282 283 284 282 282 284 286 287 297 299 298 294 287 283 289 292 304 308 290 291 292 289 287 288 296 299 299 301 303 302 297 299 287 283 295 296 300 296 289
267 270 271 269 273 273 274 274 275 279 280 282 281 280 283 280 282 284 289 288 286 285 284 283 283 285 285 286 287 291 294 293 291 285 291 293 291 294 291 293 290 284 284 285 287 288 288
264 267 269 270 271 271 270 271 273 274 276 280 280 279 278 280 283 285 286 288 282 282 281 279 279 278 276 275 279 283 284 284 286 288 288 290 287 286 287 286 285 284 282 282 282 281 283
263 265 269 271 270 269 269 269 270 272 273 276 279 282 279 277 277 279 280 283 284 285 284 283 278 274 274 274 274 273 272 271 271 278 280 281 282 280 281 280 278 280 282 283 287 283 279
261 262 265 267 268 268 269 271 271 274 270 271 270 277 279 280 275 277 278 278 281 284 284 285 281 284 280 274 273 274 273 272 272 272 274 276 277 277 278 277 278 280 278 282 283 281 281
Height
10737 10733 10729 10724 10717 10710 10700 10689 10675 10656 10634 10611 10587 10559 10529 10501 10476 10455 10443 10428 10415 10406 10400 10397 10398 10404 10414 10427 10442 10459 10477 10503 10524 10541 10563 10589 10614 10636 10652 10665 10683 10700 10712 10728 10740 10739 10751
10734 10729 10725 10721 10715 10707 10698 10687 10675 10657 10636 10613 10591 10566 10537 10509 10482 10462 10447 10434 10423 10412 10404 10403 10405 10409 10417 10427 10439 10453 10470 10492 10511 10532 10564 10583 10603 10626 10637 10660 10677 10692 10706 10720 10725 10732 10742
10731 10726 10722 10717 10712 10705 10697 10686 10674 10660 10640 10617 10597 10573 10546 10519 10494 10470 10454 10442 10430 10422 10414 10413 10415 10417 10424 10434 10442 10452 10466 10484 10502 10529 10548 10563 10579 10607 10630 10657 10671 10684 10698 10707 10716 10727 10738
10728 10723 10719 10714 10710 10704 10695 10687 10675 10661 10643 10623 10602 10580 10559 10533 10509 10482 10465 10451 10442 10435 10427 10425 10427 10429 10431 10436 10445 10458 10472 10495 10508 10520 10547 10568 10598 10617 10638 10652 10665 10677 10690 10699 10710 10722 10732
10725 10721 10716 10711 10707 10702 10695 10687 10677 10664 10648 10628 10610 10589 10569 10548 10524 10503 10477 10464 10453 10446 10442 10437 10437 10441 10444 10450 10454 10465 10477 10492 10507 10522 10543 10569 10597 10618 10632 10646 10658 10670 10685 10697 10707 10717 10727
10720 10717 10714 10709 10705 10700 10694 10687 10679 10668 10654 10638 10618 10600 10579 10559 10538 10516 10498 10480 10468 10457 10452 10451 10448 10451 10453 10458 10464 10472 10481 10493 10509 10528 10543 10564 10586 10603 10619 10635 10653 10666 10680 10692 10702 10711 10720
10715 10713 10710 10706 10702 10698 10693 10686 10680 10670 10659 10645 10628 10611 10591 10571 10551 10531 10513 10496 10480 10470 10464 10459 10458 10457 10460 10463 10470 10479 10490 10500 10510 10525 10542 10565 10583 10597 10613 10627 10643 10659 10673 10685 10694 10703 10712
10711 10708 10706 10703 10699 10697 10692 10686 10680 10672 10663 10652 10637 10622 10605 10585 10565 10546 10527 10510 10495 10485 10477 10473 10469 10469 10467 10471 10476 10486 10496 10506 10521 10535 10547 10561 10578 10592 10603 10622 10640 10657 10672 10681 10691 10699 10709
10706 10703 10701 10698 10696 10694 10691 10686 10680 10673 10665 10656 10646 10633 10618 10601 10580 10563 10544 10528 10513 10501 10493 10485 10482 10479 10479 10479 10483 10487 10496 10508 10517 10529 10541 10557 10574 10589 10608 10624 10641 10657 10667 10677 10688 10697 10704
10702 10699 10696 10694 10693 10691 10689 10686 10681 10674 10668 10660 10651 10642 10629 10617 10599 10579 10561 10544 10530 10518 10509 10499 10493 10489 10488 10489 10489 10492 10499 10506 10517 10530 10540 10555 10569 10590 10607 10622 10636 10651 10660 10672 10681 10691 10698
10702 10696 10691 10689 10690 10689 10687 10685 10681 10676 10670 10663 10656 10647 10638 10627 10614 10597 10582 10564 10550 10538 10529 10514 10507 10501 10499 10501 10502 10502 10505 10511 10518 10527 10536 10551 10563 10583 10600 10617 10632 10643 10655 10668 10678 10686 10693
10703 10697 10691 10687 10687 10686 10685 10684 10680 10677 10672 10667 10660 10652 10644 10636 10625 10614 10600 10584 10570 10558 10547 10534 10523 10515 10512 10511 10512 10513 10516 10519 10523 10531 10541 10552 10563 10578 10596 10613 10629 10641 10653 10664 10672 10681 10688
10703 10698 10693 10688 10684 10684 10682 10681 10680 10677 10673 10669 10664 10657 10651 10644 10635 10626 10617 10602 10590 10579 10566 10551 10543 10534 10529 10524 10523 10522 10525 10530 10535 10539 10546 10555 10566 10580 10597 10613 10628 10641 10651 10660 10668 10676 10683
10703 10699 10695 10690 10684 10682 10681 10680 10679 10677 10674 10671 10666 10661 10656 10650 10642 10635 10630 10619 10608 10596 10584 10572 10561 10555 10549 10542 10538 10536 10537 10539 10544 10550 10556 10562 10572 10583 10597 10611 10625 10636 10647 10656 10665 10673 10676
10701 10698 10695 10691 10686 10680 10678 10677 10677 10676 10674 10671 10668 10664 10659 10654 10649 10643 10638 10630 10622 10613 10603 10593 10581 10575 10569 10563 10558 10553 10550 10551 10554 10558 10566 10573 10580 10592 10602 10612 10623 10634 10645 10654 10659 10664 10671
10698 10696 10694 10691 10687 10682 10678 10676 10675 10674 10673 10671 10668 10665 10662 10658 10654 10650 10646 10639 10635 10628 10619 10611 10602 10596 10587 10582 10577 10573 10571 10570 10570 10571 10574 10580 10589 10599 10607 10617 10626 10635 10643 10652 10658 10663 10666
10695 10693 10692 10689 10687 10683 10679 10675 10672 10671 10671 10670 10668 10665 10662 10660 10657 10654 10650 10646 10642 10639 10633 10627 10620 10613 10608 10603 10596 10592 10590 10589 10589 10589 10591 10595 10600 10606 10614 10622 10630 10638 10644 10650 10654 10658 10659
10691 10690 10688 10687 10685 10683 10680 10677 10674 10670 10669 10669 10667 10665 10664 10661 10659 10657 10654 10651 10648 10645 10642 10638 10633 10629 10624 10619 10615 10612 10608 10606 10605 10606 10607 10609 10611 10614 10619 10625 10630 10635 10640 10644 10646 10649 10651
10686 10685 10684 10683 10682 10680 10678 10676 10674 10671 10668 10666 10666 10665 10664 10662 10661 10658 10656 10655 10652 10648 10646 10644 10642 10639 10636 10633 10629 10626 10624 10622 10621 10621 10622 10623 10624 10627 10628 10631 10634 10637 10640 10642 10645 10647 10649
10680 10680 10679 10677 10676 10676 10676 10674 10673 10671 10669 10666 10663 10663 10662 10661 10660 10658 10656 10655 10654 10652 10648 10647 10645 10644 10642 10641 10639 10637 10635 10633 10632 10632 10632 10633 10634 10635 10636 10638 10640 10640 10641 10642 10643 10643 10643
10672 10672 10672 10671 10671 10671 10671 10671 10670 10668 10667 10666 10663 10660 10660 10659 10658 10657 10655 10653 10652 10651 10651 10648 10647 10645 10644 10642 10642 10641 10640 10640 10639 10637 10636 10636 10637 10637 10638 10639 10639 10639 10639 10640 10639 10639 10638
10662 10663 10664 10665 10664 10664 10664 10664 10664 10664 10664 10664 10663 10661 10658 10656 10655 10654 10653 10652 10650 10649 10648 10648 10647 10646 10644 10643 10642 10641 10640 10639 10639 10639 10639 10638 10639 10638 10638 10637 10637 10637 10636 10635 10633 10632 10631
10651 10652 10654 10655 10656 10656 10657 10658 10658 10658 10658 10658 10658 10658 10656 10655 10653 10651 10650 10649 10648 10647 10646 10646 10645 10644 10643 10642 10641 10640 10639 10639 10637 10636 10636 10636 10636 10635 10636 10634 10633 10632 10632 10631 10630 10627 10626
10639 10641 10643 10644 10646 10646 10648 10648 10649 10651 10652 10651 10651 10651 10651 10651 10650 10649 10648 10646 10645 10644 10643 10642 10642 10640 10640 10640 10639 10637 10637 10635 10634 10633 10632 10631 10631 10630 10629 10629 10627 10626 10625 10624 10622 10621 10618
10626 10629 10631 10633 10634 10636 10636 10637 10639 10640 10641 10642 10643 10643 10642 10643 10644 10643 10643 10642 10641 10639 10637 10637 10637 10635 10634 10634 10633 10633 10632 10630 10629 10627 10625 10624 10624 10624 10623 10621 10620 10617 10614 10612 10611 10610 10608
10612 10615 10616 10619 10621 10624 10624 10625 10626 10627 10628 10629 10629 10632 10632 10632 10632 10633 10634 10634 10633 10633 10633 10631 10629 10628 10628 10627 10626 10625 10623 10622 10621 10618 10617 10617 10616 10613 10612 10611 10610 10605 10602 10601 10599 10597 10592
10596 10598 10600 10602 10604 10606 10610 10611 10612 10613 10614 10616 10616 10617 10619 10620 10619 10620 10619 10620 10622 10622 10621 10622 10622 10620 10618 10616 10616 10615 10614 10614 10612 10609 10606 10604 10603 10601 10598 10598 10597 10592 10590 10587 10585 10583 10578
10578 10581 10582 10584 10586 10589 10592 10595 10596 10597 10599 10599 10600 10602 10605 10603 10605 10605 10605 10606 10606 10607 10607 10606 10607 10608 10607 10605 10604 10603 10600 10599 10598 10596 10593 10591 10588 10586 10583 10581 10581 10578 10574 10571 10569 10566 10562
10560 10562 10564 10566 10567 10569 10572 10575 10577 10578 10580 10582 10583 10585 10586 10585 10585 10587 10587 10589 10588 10589 10590 10589 10589 10588 10588 10588 10588 10588 10586 10584 10581 10579 10574 10574 10569 10568 10562 10560 10560 10560 10557 10555 10552 10548 10542